Location: Brede
(50.9167°N, 0.6000°E)
Time: 19:25:06
(UTC+00:00)

Cosmos 2151 Rocket - Pass Details

Date: 08 August 2020
Orbit: 618 x 641 km, 82.5° (Epoch: 24 September)

Event Time Altitude Azimuth Distance (km) Brightness Sun altitude
Exits shadow 01:33:14 51° 221° (SW) 790 3.7 -20.2°
Maximum altitude 01:34:13 69° 282° (WNW) 671 3.6 -20.1°
Drops below altitude 10° 01:38:38 10° 6° (N) 2,000 7.2 -19.9°
Sets 01:40:53 0° 9° (N) 2,909 8.4 -19.7°
